SCP
0 0 0 1 1 2 2 2 3 3 2 2 1 1 2 2 2 2 3 3 2 2 2 1 1 1 1 0 1 1 1 2 1 1 1 0 0 0 1 1 1 1 1
0 0 0 1 1 2 2 2 2 2 2 1 1 1 1 2 2 2 3 3 2 2 1 1 1 1 1 0 0 1 1 1 1 1 1 0 0 0 1 1 1 1 1
0 0 0 0 1 2 2 2 2 2 1 1 0 1 1 1 2 2 2 2 2 2 1 1 1 1 1 1 0 0 1 1 1 1 1 1 0 0 0 1 1 1 1
0 0 0 0 1 2 2 3 2 2 1 0 0 0 1 1 1 2 2 2 2 2 1 1 1 1 1 1 0 0 1 1 1 1 1 1 0 0 0 0 1 1 1
0 0 0 0 0 1 2 2 2 1 1 0 0 0 0 1 1 1 1 2 1 1 1 1 1 1 1 1 1 1 1 1 1 1 1 0 0 0 0 0 1 1 1
0 0 0 0 0 1 2 2 2 1 1 0 0 0 0 0 0 1 1 1 1 1 1 1 1 1 1 1 1 1 1 1 1 1 0 0 0 0 0 0 1 1 1
0 0 0 0 0 1 2 2 1 1 0 0 0 0 0 0 0 0 0 1 1 1 1 1 1 1 1 1 1 1 1 1 1 1 1 0 0 0 0 0 1 1 1
0 0 0 0 1 2 2 2 1 0 0 0 0 0 0 0 0 0 0 0 0 1 1 1 1 1 1 1 1 1 1 1 1 1 1 0 0 0 0 0 1 1 1
0 0 0 0 1 2 2 2 1 0 0 0 0 0 0 0 0 0 0 0 0 0 0 1 1 1 1 1 1 1 0 0 1 1 0 0 0 0 0 0 0 1 1
0 0 0 0 1 2 2 1 1 0 0 0 0 0 0 0 0 0 0 0 0 0 0 0 1 1 1 1 1 0 0 0 0 0 0 0 0 0 0 0 0 0 0
0 0 0 0 1 1 2 1 1 0 0 0 0 0 0 0 0 0 0 0 0 0 0 0 0 1 1 1 1 0 0 0 0 0 0 0 0 0 0 0 0 0 0
0 0 0 0 0 1 1 1 0 0 0 0 0 0 0 0 0 0 0 0 0 0 0 0 0 0 0 0 0 0 0 0 0 0 0 0 0 0 0 0 0 0 0
0 0 0 0 0 0 0 0 0 0 0 0 0 0 0 0 0 0 0 0 0 0 0 0 0 0 0 0 0 0 0 0 0 0 0 0 0 0 0 0 0 0 0
0 0 0 0 0 0 0 0 0 0 0 0 0 0 0 0 0 0 0 0 0 0 0 0 0 0 0 0 0 0 0 0 0 0 0 0 0 0 0 0 0 0 0
0 0 0 0 0 0 0 0 0 0 0 0 0 0 0 0 0 0 0 0 0 0 0 0 0 0 0 0 0 0 0 0 0 0 0 0 0 0 0 0 0 0 0
0 0 0 0 0 0 0 0 0 0 0 0 0 0 0 0 0 0 0 0 0 0 0 0 0 0 0 0 0 0 0 0 0 0 0 0 0 0 0 0 0 0 0
0 0 0 0 0 0 0 0 0 0 0 0 0 0 0 0 0 0 0 0 0 0 0 0 0 0 0 0 0 0 0 0 0 0 0 0 0 0 0 0 0 0 0
0 0 0 0 0 0 0 0 0 0 0 0 0 0 0 0 0 0 0 0 0 0 0 0 0 0 0 0 0 0 0 0 0 0 0 0 0 0 0 0 0 0 0
0 0 0 0 0 0 0 0 0 0 0 0 0 0 0 0 0 0 0 0 0 0 0 0 0 0 0 0 0 0 0 0 0 0 0 0 0 0 0 0 0 0 0
0 0 0 0 0 0 0 0 0 0 0 0 0 0 0 0 0 0 0 0 0 0 0 0 0 0 0 0 0 0 0 0 0 0 0 0 0 0 0 0 0 0 0
0 0 0 0 0 0 0 0 0 0 0 0 0 0 0 0 0 0 0 0 0 0 0 0 0 0 0 0 0 0 0 0 0 0 0 0 0 0 0 0 0 0 0
0 0 0 0 0 0 0 0 0 0 0 0 0 0 0 0 0 0 0 0 0 0 0 0 0 0 0 0 0 0 0 0 0 0 0 0 0 0 0 0 0 0 0
0 0 0 0 0 0 0 0 0 0 0 0 0 0 0 0 0 0 0 0 0 0 0 0 0 0 0 0 0 0 0 0 0 0 0 0 0 0 0 0 0 0 0
0 0 0 0 0 0 0 0 0 0 0 0 0 0 0 0 0 0 0 0 0 0 0 0 0 0 0 0 0 0 0 0 0 0 0 0 0 0 0 0 0 0 0
0 0 0 0 0 0 0 0 0 0 0 0 0 0 0 0 0 0 0 0 0 0 0 0 0 0 0 0 0 0 0 0 0 0 0 0 0 0 0 0 0 0 0
0 0 0 0 0 0 0 0 0 0 0 0 0 0 0 0 0 0 0 0 0 0 0 0 0 0 0 0 0 0 0 0 0 0 0 0 0 0 0 0 0 0 0
Wind_Speed
7 7 8 8 8 9 9 8 8 8 7 5 5 4 4 4 3 3 3 3 2 2 2 2 2 2 2 3 3 3 3 3 2 2 1 2 2 3 2 2 2 2 2
7 8 9 9 9 9 9 9 8 8 7 6 5 4 5 4 3 3 3 3 3 3 2 2 2 3 3 3 3 3 3 3 3 3 2 2 3 3 3 3 3 3 2
7 8 8 9 9 9 9 8 8 8 8 8 5 5 4 3 3 4 3 4 4 3 3 3 3 3 3 3 4 4 5 4 4 4 3 3 4 2 3 4 3 3 3
6 6 8 9 9 9 8 8 7 7 7 7 6 6 5 5 5 5 4 5 4 4 3 4 4 4 4 4 5 5 5 5 5 4 4 4 2 3 3 3 3 3 4
5 6 7 8 8 8 8 7 7 7 7 7 6 6 5 5 5 5 6 5 4 4 4 4 4 4 4 5 5 5 5 5 6 5 4 4 3 5 4 4 4 3 3
4 5 6 7 7 7 7 8 8 8 7 7 7 6 7 7 7 6 6 5 4 4 5 5 5 5 4 5 5 6 7 6 7 5 5 4 4 5 5 5 5 4 3
4 5 6 7 7 8 8 8 8 9 9 8 7 7 8 8 8 7 6 6 4 4 5 5 5 5 5 5 5 6 7 7 7 7 5 5 5 4 5 4 4 4 3
4 4 5 6 7 7 8 8 8 9 9 9 8 7 8 6 6 7 6 6 5 5 5 6 6 6 6 6 6 6 6 6 7 8 7 6 5 5 5 5 4 4 4
4 5 5 6 6 7 7 7 8 8 9 9 9 8 8 7 7 8 7 5 6 5 6 6 7 7 6 6 6 5 6 6 7 7 7 6 5 4 5 5 5 5 6
5 5 5 6 6 6 6 6 7 8 9 9 8 7 8 8 8 7 7 7 7 7 6 6 7 7 6 6 6 5 6 6 6 5 7 6 4 4 4 4 5 5 6
5 6 6 6 6 6 6 6 7 8 8 9 9 9 9 9 8 7 7 7 7 7 7 6 6 6 6 6 6 6 6 7 6 6 6 7 5 4 4 4 4 5 5
5 6 6 6 6 7 7 7 7 8 8 9 9 9 9 9 8 8 8 8 7 7 7 6 6 6 6 6 6 6 6 7 7 7 7 7 5 6 5 4 5 5 5
5 6 6 7 7 8 8 8 7 8 9 9 9 9 9 9 9 9 8 8 8 8 7 7 6 6 6 6 6 6 7 7 7 7 8 7 7 7 6 6 6 5 4
6 6 7 7 8 9 9 8 8 8 9 9 9 10 10 10 10 9 9 8 8 8 7 7 7 6 6 6 6 6 7 7 7 7 8 8 7 7 7 6 7 5 5
7 7 8 8 9 10 10 9 9 9 9 9 10 10 10 10 9 9 9 8 8 8 8 7 7 7 6 6 6 7 7 7 7 7 7 7 7 8 8 6 6 6 5
7 8 9 9 10 10 10 10 10 10 9 10 10 10 10 10 9 9 9 9 8 8 8 7 7 7 6 8 10 8 7 7 8 7 7 7 7 8 9 10 10 9 7
8 9 9 10 10 10 10 10 10 10 10 10 10 10 10 10 10 9 9 9 9 9 9 8 8 8 8 9 10 10 7 7 7 7 7 6 6 7 7 7 9 9 10
8 9 9 10 10 10 10 10 10 10 10 10 10 10 10 10 10 10 9 9 8 8 8 8 8 8 8 9 10 11 8 7 7 7 7 7 7 7 6 6 6 7 7
8 9 9 10 10 10 10 10 10 10 10 10 11 11 10 11 10 10 10 9 9 9 8 8 8 8 9 10 10 10 7 6 7 7 7 7 7 8 7 6 6 6 5
8 8 9 9 9 10 9 10 10 10 11 11 11 11 10 11 10 10 10 9 8 9 8 8 8 8 8 10 10 9 6 6 5 5 5 7 7 7 7 6 6 7 5
8 8 8 8 9 9 9 10 10 10 11 12 11 11 10 10 10 10 9 9 8 8 8 8 7 7 8 9 9 10 6 5 5 4 4 4 7 7 7 7 6 6 5
8 8 8 8 9 9 9 10 11 11 11 12 11 10 10 9 8 9 9 8 8 8 7 7 7 6 7 8 8 10 9 7 5 5 4 4 6 7 7 6 5 5 5
8 8 8 9 9 9 9 10 11 12 12 12 11 10 10 9 9 8 8 8 7 6 6 6 6 6 6 6 9 10 10 9 6 4 6 6 6 6 5 5 5 4 3
8 8 8 9 10 10 10 10 11 11 11 12 11 10 10 9 8 7 6 6 6 6 6 6 6 6 6 5 5 5 5 5 5 3 3 4 4 4 4 4 3 2 3
7 7 8 9 10 11 11 11 11 11 11 11 10 10 9 9 8 7 6 7 7 7 8 7 6 6 6 7 10 7 4 4 3 3 2 1 1 2 2 2 2 1 1
7 7 8 9 10 10 11 11 10 10 10 10 9 8 8 7 7 7 7 9 9 11 12 11 10 8 9 11 10 9 8 7 4 2 2 2 2 2 2 2 2 2 2
Wind_Direction
7 7 5 4 3 3 1 357 357 356 351 343 336 325 323 318 317 306 296 288 286 276 266 275 269 265 258 252 240 233 222 221 211 220 246 263 255 244 240 246 238 225 234
6 7 6 6 5 1 358 355 356 354 351 344 333 320 312 303 303 310 298 287 279 273 262 261 257 255 256 253 247 232 231 228 215 216 214 221 227 221 241 242 242 237 228
1 1 1 1 1 1 356 352 351 351 350 345 337 330 320 308 309 312 303 294 282 267 268 258 256 252 248 246 247 240 233 228 226 225 226 219 220 216 213 227 235 232 232
358 358 357 356 356 355 351 349 348 350 352 348 343 340 328 314 310 311 306 297 283 266 263 260 254 249 247 246 242 241 244 229 227 228 246 261 258 225 211 213 226 239 244
352 352 352 351 351 350 349 348 348 351 351 345 339 331 322 313 309 309 308 301 287 270 262 258 254 250 249 246 245 245 245 236 231 225 230 243 246 245 239 234 223 228 242
345 345 347 349 350 352 352 350 350 347 345 340 335 329 320 317 313 311 307 301 294 282 272 266 255 249 248 246 245 244 242 241 238 232 229 231 230 231 234 236 227 231 237
339 340 342 344 346 350 352 351 350 347 344 338 335 330 323 316 311 307 304 304 297 291 283 279 263 253 252 250 249 246 244 243 241 237 236 239 243 243 244 240 236 239 242
335 334 335 335 336 341 344 346 345 342 341 338 333 327 323 315 311 309 305 300 295 293 295 288 276 263 257 253 247 246 244 245 245 243 242 243 243 241 239 237 234 236 237
333 332 329 330 331 333 336 337 337 335 334 333 331 326 325 318 312 309 306 300 298 297 292 285 277 267 258 255 252 246 245 247 248 245 242 242 242 243 245 243 235 235 239
324 327 327 324 325 324 325 330 331 329 326 328 327 323 320 318 315 311 310 303 301 297 291 287 280 269 259 255 250 251 244 245 246 247 241 241 241 240 242 242 242 245 248
318 319 320 322 322 327 326 329 329 328 326 327 323 320 320 319 317 315 311 305 300 297 286 283 281 276 259 249 247 248 245 243 246 247 241 240 239 237 237 240 240 242 240
315 317 320 323 323 328 327 326 327 325 323 321 318 316 316 315 315 313 313 309 302 298 291 281 276 274 267 253 245 245 245 244 244 243 243 241 235 235 233 231 235 238 238
319 323 325 328 327 326 326 326 324 321 320 318 315 314 315 315 314 313 312 310 306 301 295 286 278 273 270 257 246 242 243 243 242 241 240 240 233 233 232 229 230 233 234
320 324 326 327 327 326 322 322 321 320 319 317 314 313 313 313 312 311 309 308 306 302 297 291 283 276 271 263 249 244 244 245 245 242 239 239 237 233 232 231 228 225 226
323 324 325 325 324 324 322 319 318 319 319 316 313 311 312 310 309 308 308 308 308 305 302 295 286 281 272 261 253 249 245 245 247 246 244 241 242 242 237 232 225 218 218
317 320 321 322 321 321 320 318 316 317 317 313 310 310 309 308 307 308 308 308 307 305 303 295 286 282 277 281 275 263 249 247 246 246 246 246 240 241 246 237 229 223 219
313 315 317 317 318 318 317 315 314 314 313 310 309 308 308 307 306 306 305 304 304 304 303 296 288 283 284 286 286 275 261 250 247 244 242 242 240 241 240 233 229 229 231
310 312 313 314 315 316 315 313 313 313 312 310 310 311 309 307 306 304 302 303 301 299 299 297 289 288 287 288 286 282 263 254 248 244 241 239 238 237 238 230 229 230 230
305 306 308 309 311 313 315 313 313 314 312 311 311 311 309 306 303 301 300 300 299 297 297 295 293 290 292 291 288 287 266 255 250 248 247 242 238 236 241 233 227 231 237
305 307 308 309 311 315 316 314 314 314 313 312 310 309 307 303 299 297 297 297 295 294 295 295 293 291 291 293 292 292 273 261 255 253 249 246 243 239 236 231 223 225 229
308 309 308 309 311 316 315 312 313 313 312 310 308 307 306 303 301 298 296 295 293 291 291 293 294 293 293 293 295 296 282 264 257 254 252 248 245 243 242 245 238 231 228
311 313 310 310 314 317 316 312 312 313 313 310 309 309 308 306 303 301 299 296 292 289 291 294 297 298 298 296 293 295 290 283 263 257 256 254 252 250 249 250 246 238 226
309 311 310 310 315 319 317 312 312 314 313 311 310 310 308 306 303 301 300 298 294 289 291 292 295 301 303 301 298 294 294 290 275 264 266 263 256 255 249 245 236 225 211
309 312 312 313 317 321 319 313 313 314 313 311 312 310 309 308 308 304 300 298 296 294 293 293 294 297 300 303 302 297 293 292 280 269 261 256 248 249 247 233 228 234 225
309 310 310 310 313 318 317 317 318 317 314 312 312 310 308 306 307 304 300 297 291 296 295 292 292 292 294 302 309 308 300 295 284 284 270 267 258 243 238 238 242 242 233
308 309 309 310 312 314 315 317 319 317 314 312 313 311 309 308 307 307 306 302 297 302 301 301 299 294 296 307 307 308 308 306 291 273 257 263 265 253 254 253 253 252 239